Flag for Canada Weather past 2 weeks in Brandon, Manitoba, Canada

Now
36 °F

Passing clouds.


Feels Like: 27 °F
Forecast: 38 / 53 °F
Wind: 12 mph from East

Location: Brandon

Current Time: Apr 1, 2015 at 4:00:51 AM

Latest Report: Apr 1, 2015 at 3:00 AM


Visibility: 15 mi

Pressure: 29.59 "Hg

Humidity: 87%

Dew point: 32 °F

Location of BrandonLocation

Historic Weather in Brandon — Graph

°F

Brandon temperature yesterday

Maximum temperature yesterday: 57 °F (at 5:00 PM)
Minimum temperature yesterday: 32 °F (at 3:00 AM)
Average temperature yesterday: 42 °F

Past Weeks' High & Low Weather Summary

 TemperatureHumidityPressure
High57 °F (Mar 31, 5:00 PM)100% (Mar 19, 6:54 AM)30.56 "Hg (Mar 19, 6:54 AM)
Low12 °F (Mar 21, 2:00 AM)38% (Mar 31, 2:00 PM)29.48 "Hg (Mar 28, 9:00 PM)
Average31 °F78%30.10 "Hg
* Reported Mar 17 2:00 AM — Apr 1 2:00 AM, Brandon, Weather by CustomWeather, © 2015

Note: Actual official high and low records may vary slightly from our data, if they occured in-between our weather recording intervals... More about our weather records

Advertising

Brandon weather history for previous 24 hours

 ConditionsComfort  
Time TempWeatherWind HumidityBarometerVisibility
2:00 AM
Wed, Apr 1
36 °FPassing clouds.12 mph87%29.64 "Hg15 mi
1:00 AM36 °FPassing clouds.13 mph87%29.67 "Hg15 mi
12:00 AM37 °FPassing clouds.10 mph87%29.70 "Hg15 mi
11:00 PM
Tue, Mar 31
39 °FPassing clouds.13 mph87%29.74 "Hg15 mi
10:00 PM39 °FPartly cloudy.15 mph87%29.76 "Hg15 mi
9:00 PM41 °FScattered clouds.14 mph87%29.77 "Hg15 mi
8:00 PM46 °FPartly sunny.15 mph82%29.78 "Hg15 mi
7:00 PM55 °FPartly sunny.9 mph47%29.78 "Hg15 mi
6:00 PM57 °FPassing clouds.13 mph39%29.80 "Hg15 mi
5:00 PM57 °FPassing clouds.12 mph39%29.81 "Hg15 mi
4:00 PM55 °FScattered clouds.12 mph38%29.83 "Hg15 mi
3:00 PM55 °FPartly sunny.5 mph44%29.86 "Hg15 mi
2:00 PM54 °FPartly sunny.2 mph38%29.89 "Hg15 mi
1:00 PM52 °FPartly sunny.7 mph54%29.93 "Hg15 mi
12:00 PM48 °FBroken clouds.5 mph66%29.94 "Hg15 mi
11:00 AM43 °FPartly sunny.5 mph81%29.96 "Hg15 mi
10:00 AM37 °FScattered clouds.5 mph87%29.97 "Hg15 mi
9:00 AM34 °FPassing clouds.5 mph93%29.98 "Hg15 mi
8:00 AM32 °FPassing clouds.No wind93%29.98 "Hg15 mi
7:00 AM32 °FPassing clouds.8 mph93%29.96 "Hg15 mi
6:00 AM32 °FPassing clouds.7 mph93%29.95 "Hg15 mi
5:00 AM32 °FPassing clouds.10 mph93%29.93 "Hg15 mi
4:00 AM32 °FPassing clouds.8 mph93%29.93 "Hg15 mi
Weather by CustomWeather, © 2015

See weather overviewHow to use our weather pages